Weather in Maicao

Colombia     11°22′47″N   72°14′39″W
temp.,
°C
wind,
m/s
gust,
m/s
humid.,
%
clouds,
%
prec.,
mm/h
press.,
hPa
HPBL,
m
22 october, fri
fri2201:00+27e597826 0.1 1011311
04:00+26ene597820 0.0 1010260
07:00+28e687226 0.0 10121008
10:00+31ese88589 0.0 10121318
13:00+32e87532 0.0 10091302
16:00+31e56551 0.0 1007882
19:00+28ene812685 0.1 1010546
22:00+27ene712802 1.9 1011447
23 october, sat
sat2301:00+27ene9148113 6.8 1010577
04:00+26ene7128138 4.6 1009410
07:00+27e7107858 5.1 1011704
10:00+31e9106222 0.1 10121410
13:00+32e88554 0.1 10091315
16:00+31e77555 0.0 10071056
19:00+28ene711705 0.0 1009511
22:00+27ene711815 1.6 1011356
24 october, sun
sun2401:00+26ene7118117 3.2 1010358
04:00+26ene6118240 3.3 1009323
07:00+28ene697845 3.4 1012866
10:00+30e886568 0.3 10131253
13:00+32e875614 0.3 10101365
16:00+31e78565 0.0 10091114
19:00+28ene8117220 0.0 1011560
22:00+27ene7127971 2.1 1013480
25 october, mon
mon2501:00+27ene7128193 7.3 1011496
04:00+26ene61081100 2.9 1011331
07:00+27ene61076100 4.4 1014829
10:00+30e8963100 0.6 10141379
13:00+31e885859 0.6 10111406
16:00+31e67575 0.0 10091049
19:00+28e59695 0.0 1011262
22:00+27ene47773 0.1 1013214
26 october, tue
tue2601:00+25e36856 1.5 1011138
04:00+25ene348649 0.8 101158
07:00+27ene378090 1.2 1012368
10:00+30e776349 0.1 10121355
13:00+32e665660 0.1 10091362
16:00+31ese555774 0.0 1008932
19:00+28ese467536 0.1 1010167
22:00+26e348338 0.8 101182